Flag for Madagascar Weather past 2 weeks in Toamasina, Madagascar

Now
81 °F

Passing clouds.


Feels Like: 86 °F
Forecast: 78 / 90 °F
Wind: No wind

Location: Tamatave

Current Time: Dec 23, 2014 at 1:03:54 AM

Latest Report: Dec 23, 2014 at 12:00 AM


Visibility: N/A

Pressure: 29.83 "Hg

Humidity: 84%

Dew point: 75 °F

Location of ToamasinaLocation

Historic Weather in Toamasina — Graph

°F

Toamasina temperature yesterday

Maximum temperature yesterday: 90 °F (at 11:00 AM)
Minimum temperature yesterday: 79 °F (at 2:00 AM)
Average temperature yesterday: 85 °F

Past Weeks' High & Low Weather Summary

 TemperatureHumidityPressure
High90 °F (Dec 20, 10:00 AM)100% (Dec 11, 2:00 AM)30.01 "Hg (Dec 11, 2:00 AM)
Low73 °F (Dec 9, 2:00 AM)62% (Dec 9, 4:00 PM)29.74 "Hg (Dec 18, 3:00 PM)
Average82 °F83%29.90 "Hg
* Reported Dec 7 11:00 PM — Dec 22 11:00 PM, Toamasina, Weather by CustomWeather, © 2014

Note: Actual official high and low records may vary slightly from our data, if they occured in-between our weather recording intervals... More about our weather records

Advertising

Toamasina weather history for previous 24 hours

 ConditionsComfort  
Time TempWeatherWind HumidityBarometerVisibility
11:00 PM
Dec 22
82 °FThunderstorms. Passing clouds.2 mph84%29.86 "HgN/A
10:00 PM82 °FThunderstorms. Passing clouds.2 mph84%29.86 "HgN/A
9:00 PM84 °FThunderstorms. Partly cloudy.5 mph84%29.86 "HgN/A
8:00 PM84 °FThunderstorms. Partly cloudy.7 mph84%29.80 "HgN/A
7:00 PM86 °FThunderstorms. Partly cloudy.7 mph79%29.80 "HgN/A
6:00 PM86 °FBroken clouds.7 mph75%29.77 "HgN/A
5:00 PM86 °FBroken clouds.9 mph79%29.74 "HgN/A
4:00 PM88 °FBroken clouds.12 mph75%29.74 "HgN/A
3:00 PM90 °FBroken clouds.12 mph71%29.74 "HgN/A
2:00 PM90 °FScattered clouds.12 mph71%29.77 "HgN/A
1:00 PM90 °FScattered clouds.12 mph67%29.80 "HgN/A
12:00 PM90 °FScattered clouds.9 mph71%29.80 "HgN/A
11:00 AM90 °FScattered clouds.9 mph75%29.83 "HgN/A
10:00 AM88 °FScattered clouds.7 mph70%29.86 "HgN/A
9:00 AM88 °FScattered clouds.7 mph70%29.86 "HgN/A
8:00 AM84 °FPartly sunny.5 mph84%29.86 "HgN/A
7:00 AM81 °FScattered showers. Broken clouds.2 mph94%29.86 "HgN/A
5:00 AM79 °FScattered showers. Passing clouds.No wind94%29.80 "HgN/A
4:00 AM79 °FPassing clouds.No wind94%29.80 "HgN/A
3:00 AM79 °FThunderstorms. Passing clouds.No wind94%29.80 "HgN/A
2:00 AM79 °FThundershowers. Passing clouds.No wind94%29.83 "HgN/A
1:00 AM81 °FPassing clouds.No wind84%29.83 "HgN/A
Weather by CustomWeather, © 2014

See weather overviewHow to use our weather pages